This is the latest recevied weather packets stored in our database for station/object W7PLC. If no packets are shown the sender has not sent any weather packets the latest 10 day(s).
| Time | Temp. | Humidity | Pressure | Rain* | Wind** | Luminosity | Snow |
|---|---|---|---|---|---|---|---|
| 1777500913 | 21.67° C | 51% | 1020.9 hPa | 0 mm | - | 726 W/m² | - |
| 1777500610 | 22.22° C | 50% | 1020.9 hPa | 0 mm | - | 730 W/m² | - |
| 1777500306 | 22.22° C | 50% | 1021.1 hPa | 0 mm | - | 706 W/m² | - |
| 1777500003 | 21.11° C | 51% | 1021.1 hPa | 0 mm | - | 679 W/m² | - |
| 1777499699 | 21.11° C | 51% | 1021.2 hPa | 0 mm | - | 622 W/m² | - |
| 1777499396 | 21.11° C | 51% | 1021.1 hPa | 0 mm | - | 514 W/m² | - |
| 1777499095 | 21.11° C | 51% | 1021.1 hPa | 0 mm | - | 583 W/m² | - |
| 1777498791 | 20.56° C | 54% | 1021.1 hPa | 0 mm | - | 667 W/m² | - |
| 1777498487 | 21.11° C | 50% | 1021.2 hPa | 0 mm | - | 645 W/m² | - |
| 1777498183 | 21.67° C | 50% | 1021.4 hPa | 0 mm | - | 569 W/m² | - |
| 1777497882 | 21.11° C | 51% | 1021.3 hPa | 0 mm | - | 595 W/m² | - |
| 1777497577 | 20.56° C | 52% | 1021.2 hPa | 0 mm | - | 642 W/m² | - |
| 1777497274 | 20° C | 53% | 1021.4 hPa | 0 mm | - | 551 W/m² | - |
| 1777496970 | 20.56° C | 53% | 1021.6 hPa | 0 mm | - | 592 W/m² | - |
| 1777496668 | 20° C | 53% | 1021.6 hPa | 0 mm | - | 633 W/m² | - |
| 1777496364 | 20° C | 52% | 1021.5 hPa | 0 mm | - | 643 W/m² | - |
| 1777496060 | 20.56° C | 52% | 1021.7 hPa | 0 mm | - | 654 W/m² | - |
| 1777495756 | 21.11° C | 52% | 1021.7 hPa | 0 mm | - | 682 W/m² | - |
| 1777495452 | 21.11° C | 52% | 1021.6 hPa | 0 mm | - | 703 W/m² | - |
| 1777495149 | 21.11° C | 53% | 1021.9 hPa | 0 mm | - | 693 W/m² | - |
| 1777494846 | 19.44° C | 55% | 1021.9 hPa | 0 mm | - | 699 W/m² | - |
| 1777494543 | 20.56° C | 53% | 1021.8 hPa | 0 mm | - | 685 W/m² | - |
| 1777494241 | 20° C | 53% | 1021.9 hPa | 0 mm | - | 669 W/m² | - |
| 1777493937 | 20° C | 53% | 1022.1 hPa | 0 mm | - | 696 W/m² | - |
| 1777493635 | 20.56° C | 52% | 1022 hPa | 0 mm | - | 639 W/m² | - |
* Rain latest hour (hover to see other rain measurements)
** Current wind speed in m/s (hover to see current wind gust speed)